Location: Azul
(36.7830°S, 59.8500°W)
Time: 20:09:46
(UTC-03:00)

ISS - Pass Details

Date: 18 April 2018
Orbit: 402 x 407 km, 51.6° (Epoch: 27 April)

Event Time Altitude Azimuth Distance (km) Brightness Sun altitude
Exits shadow 06:21:54 27° 259° (W) 820 -2.9 -13.8°
Maximum altitude 06:23:15 44° 315° (NW) 577 -3.4 -13.6°
Drops below altitude 10° 06:26:23 10° 28° (NNE) 1,462 -0.6 -12.9°
Sets 06:28:30 0° 34° (NE) 2,314 0.6 -12.5°
